INMARSAT 4-F3

Last updated on Sat Aug 15 2026 00:02:57 GMT+0000 (Coordinated Universal Time)

1 33278U 08039A 26226.54855598 -.00000155 00000+0 00000+0 0 9990 2 33278 4.3485 31.7056 0002423 137.6446 253.1032 1.00271759 47136
UTC large
Height (km)
Speed (km/s)
/
Latitude / Longitude
Inclination (degrees)
Orbital Period (minutes)
Azimuth
Elevation
Range (km)
Doppler Factor

Next 0 passes for location: London (51.5072 / 0.1276)

No passes found over London.
INMARSAT 4-F3